Poplar Bluff, MO

3:06 PM CDT on June 25, 2017 (GMT -0500)
Poplar Bluff Municipal

Weather History for KPOF - January, 2014

Change the Weather History Date:

Wednesday, January 29, 2014

  Actual Average Record
Temperature  
Mean Temperature 22 °F -  
Max Temperature 35 °F 44 °F 73 °F (2013)
Min Temperature 9 °F 25 °F 0 °F (1977)
Degree Days  
Heating Degree Days 43    
Moisture  
Dew Point 6 °F    
Average Humidity 53    
Maximum Humidity 73    
Minimum Humidity 31    
Precipitation  
Precipitation 0.00 in - - ()
Sea Level Pressure  
Sea Level Pressure 30.38 in    
Wind  
Wind Speed 4 mph (SSW)    
Max Wind Speed 14 mph    
Max Gust Speed -    
Visibility 10 miles    
Events      
Averages and records for this station are not official NWS values.
T = Trace of Precipitation, MM = Missing Value Source: NWS Daily Summary

Daily Weather History Graph

Daily Weather History Graph

Search for Another Location

Airport or City:

Trip Planner

Search our weather history database for the weather conditions in past years. The results will help you decide how hot, cold, wet, or windy it might be!

Date:

Astronomy

Jan. 29, 2014 Rise Set
Actual Time 7:05 AM CST 5:23 PM CST
Civil Twilight 6:38 AM CST 5:51 PM CST
Nautical Twilight 6:07 AM CST 6:22 PM CST
Astronomical Twilight 5:36 AM CST 6:52 PM CST
Moon 5:42 AM CST (1/29) 4:23 PM CST (1/29)
Length of Visible Light 11h 12m
Length of Day
10h 17m
Waning Crescent, 2% of the Moon is Illuminated
Jan 29
Waning Crescent
Jan 30
New
Feb 6
First Quarter
Feb 14
Full
Feb 22
Last Quarter

Hourly Weather History & Observations

Time (CST) Temp. Windchill Dew Point Humidity Pressure Visibility Wind Dir Wind Speed Gust Speed Precip Events Conditions
12:53 AM 10.9 °F - 1.9 °F 67% 30.46 in 10.0 mi Calm Calm - N/A   Clear
1:53 AM 10.0 °F - 1.9 °F 70% 30.46 in 10.0 mi Calm Calm - N/A   Clear
2:53 AM 10.0 °F - 3.0 °F 73% 30.45 in 10.0 mi Calm Calm - N/A   Clear
3:53 AM 9.0 °F - 1.9 °F 73% 30.44 in 10.0 mi Calm Calm - N/A   Clear
4:53 AM 10.0 °F - 1.9 °F 70% 30.44 in 10.0 mi Calm Calm - N/A   Partly Cloudy
5:53 AM 10.0 °F - 1.9 °F 70% 30.44 in 10.0 mi Calm Calm - N/A   Clear
6:53 AM 9.0 °F - 1.9 °F 73% 30.44 in 10.0 mi Calm Calm - N/A   Clear
7:53 AM 12.9 °F - 5.0 °F 71% 30.45 in 10.0 mi Calm Calm - N/A   Clear
8:53 AM 17.1 °F 8.7 °F 6.1 °F 62% 30.45 in 10.0 mi South 5.8 mph - N/A   Clear
9:53 AM 21.0 °F 11.4 °F 9.0 °F 60% 30.46 in 10.0 mi SSW 8.1 mph - N/A   Clear
10:53 AM 27.0 °F 16.7 °F 8.1 °F 45% 30.47 in 10.0 mi SW 11.5 mph - N/A   Clear
11:53 AM 30.0 °F 21.1 °F 3.9 °F 33% 30.43 in 10.0 mi SSW 10.4 mph - N/A   Clear
12:53 PM 30.9 °F 20.7 °F 3.9 °F 32% 30.39 in 10.0 mi SSW 13.8 mph - N/A   Clear
1:53 PM 33.1 °F 26.1 °F 5.0 °F 31% 30.37 in 10.0 mi SW 8.1 mph - N/A   Clear
2:53 PM 33.1 °F 24.4 °F 7.0 °F 34% 30.35 in 10.0 mi SSW 11.5 mph - N/A   Clear
3:53 PM 35.1 °F 26.4 °F 7.0 °F 31% 30.32 in 10.0 mi SSW 12.7 mph - N/A   Clear
4:53 PM 33.1 °F 26.1 °F 8.1 °F 35% 30.32 in 10.0 mi South 8.1 mph - N/A   Clear
5:53 PM 30.0 °F 23.2 °F 9.0 °F 41% 30.30 in 10.0 mi South 6.9 mph - N/A   Clear
6:53 PM 28.0 °F 20.8 °F 9.0 °F 45% 30.31 in 10.0 mi South 6.9 mph - N/A   Clear
7:53 PM 28.0 °F 19.3 °F 10.0 °F 47% 30.30 in 10.0 mi South 9.2 mph - N/A   Clear
8:53 PM 27.0 °F 18.7 °F 9.0 °F 47% 30.29 in 10.0 mi South 8.1 mph - N/A   Clear
9:53 PM 26.1 °F 16.8 °F 8.1 °F 47% 30.28 in 10.0 mi South 9.2 mph - N/A   Clear
10:53 PM 25.0 °F 15.5 °F 9.0 °F 51% 30.27 in 10.0 mi South 9.2 mph - N/A   Clear
11:53 PM 24.1 °F 15.2 °F 9.0 °F 53% 30.26 in 10.0 mi South 8.1 mph - N/A   Clear